Location: Chandolas
(44.4033°N, 4.2533°E)
Time: 07:42:42
(UTC+00:00)

IDEFIX/ARIANE 42P - Pass Details

Date: 15 November 2019
Orbit: 784 x 804 km, 98.3° (Epoch: 12 December)

Event Time Altitude Azimuth Distance (km) Brightness Sun altitude
Rises 05:02:04 0° 358° (N) 3,292 5.7 -17.2°
Reaches altitude 10° 05:05:14 10° 338° (NNW) 2,355 4.7 -16.7°
Enters shadow 05:06:01 12° 330° (NNW) 2,189 4.5 -16.5°
